GLET21 YCBG-YCBG

Flight info

Callsign GLET21
Flight time 0h 2m
Altitude 5500
Route VFR
Aircraft H60/L-SDFGRY/C

Departure

Time 2026-04-23 10:51
Airport Cambridge Aerodrome (YCBG)

Arrival

Time 2026-04-23 10:53
Airport Cambridge Aerodrome (YCBG)
Time Latitude Longitude Altitude Speed Heading
2026-04-23 10:30 -42.82928 147.47629 37 ft 0 kts 355°
2026-04-23 10:48 -42.82927 147.47631 37 ft 0 kts 274°
2026-04-23 10:48 -42.82927 147.47617 37 ft 4 kts 268°
2026-04-23 10:48 -42.82918 147.47566 37 ft 5 kts 353°
2026-04-23 10:49 -42.82882 147.47576 37 ft 5 kts 13°
2026-04-23 10:49 -42.82851 147.47585 37 ft 3 kts 12°
2026-04-23 10:49 -42.82848 147.47585 44 ft 1 kts 13°
2026-04-23 10:49 -42.82826 147.47592 46 ft 6 kts 346°
2026-04-23 10:50 -42.82786 147.47432 87 ft 36 kts 287°
2026-04-23 10:50 -42.82691 147.46938 332 ft 70 kts 285°
2026-04-23 10:50 -42.82638 147.46451 524 ft 87 kts 275°
2026-04-23 10:50 -42.83025 147.45772 610 ft 96 kts 206°
2026-04-23 10:51 -42.83610 147.46020 768 ft 95 kts 134°
2026-04-23 10:51 -42.83990 147.46777 818 ft 97 kts 123°
2026-04-23 10:51 -42.84345 147.47564 838 ft 99 kts 117°
2026-04-23 10:51 -42.84440 147.48468 733 ft 96 kts 75°
2026-04-23 10:52 -42.84004 147.49043 625 ft 89 kts 15°
2026-04-23 10:52 -42.83396 147.48987 503 ft 88 kts 343°
2026-04-23 10:52 -42.82978 147.48348 226 ft 98 kts 292°
2026-04-23 10:52 -42.82808 147.47540 178 ft 77 kts 286°
2026-04-23 10:53 -42.82696 147.46982 273 ft 47 kts 285°
2026-04-23 10:53 -42.82653 147.46666 291 ft 21 kts 282°
2026-04-23 10:53 -42.82758 147.46488 319 ft 40 kts 197°
2026-04-23 10:53 -42.83173 147.46483 385 ft 80 kts 147°
2026-04-23 10:54 -42.83517 147.47068 547 ft 84 kts 107°
2026-04-23 10:54 -42.83685 147.47915 526 ft 101 kts 95°
2026-04-23 10:54 -42.83694 147.48896 444 ft 101 kts 65°
2026-04-23 10:54 -42.83189 147.49273 330 ft 89 kts 324°
2026-04-23 10:55 -42.83002 147.48554 180 ft 77 kts 286°
2026-04-23 10:55 -42.82887 147.47958 78 ft 44 kts 283°
2026-04-23 10:55 -42.82846 147.47725 56 ft 7 kts 277°
2026-04-23 10:55 -42.82839 147.47703 58 ft 1 kts 283°
2026-04-23 10:56 -42.82831 147.47684 55 ft 4 kts 183°
2026-04-23 10:56 -42.82820 147.47682 52 ft 2 kts 194°
2026-04-23 10:56 -42.82830 147.47678 52 ft 1 kts 188°
2026-04-23 10:56 -42.82832 147.47645 53 ft 8 kts 278°
2026-04-23 10:57 -42.82814 147.47559 56 ft 10 kts 281°
2026-04-23 10:57 -42.82796 147.47462 57 ft 11 kts 288°
2026-04-23 10:57 -42.82761 147.47290 89 ft 29 kts 283°
2026-04-23 10:57 -42.82711 147.46898 249 ft 57 kts 273°
2026-04-23 10:58 -42.83108 147.46512 412 ft 89 kts 182°
2026-04-23 10:58 -42.83638 147.47017 546 ft 105 kts 122°
2026-04-23 10:58 -42.83729 147.47969 637 ft 103 kts 88°
2026-04-23 10:58 -42.83655 147.48965 573 ft 110 kts 59°
2026-04-23 10:59 -42.83101 147.48986 233 ft 84 kts 291°
2026-04-23 10:59 -42.82965 147.48325 93 ft 58 kts 286°
2026-04-23 10:59 -42.82886 147.47947 52 ft 25 kts 288°
2026-04-23 10:59 -42.82848 147.47742 61 ft 26 kts 287°
2026-04-23 11:00 -42.82780 147.47408 168 ft 49 kts 288°
2026-04-23 11:00 -42.82803 147.46851 398 ft 76 kts 236°
2026-04-23 11:00 -42.83308 147.46781 629 ft 92 kts 155°
2026-04-23 11:00 -42.83931 147.47249 743 ft 114 kts 160°
2026-04-23 11:01 -42.84737 147.47541 819 ft 120 kts 168°
2026-04-23 11:01 -42.85544 147.47715 1070 ft 115 kts 172°
2026-04-23 11:01 -42.86317 147.47838 1139 ft 110 kts 174°
2026-04-23 11:01 -42.87067 147.47911 1204 ft 105 kts 179°
2026-04-23 11:02 -42.87786 147.48001 1240 ft 104 kts 174°
2026-04-23 11:02 -42.88513 147.48090 1208 ft 106 kts 178°
2026-04-23 11:02 -42.89261 147.48109 1167 ft 109 kts 182°
2026-04-23 11:02 -42.90014 147.48061 1103 ft 107 kts 186°
2026-04-23 11:03 -42.90733 147.47961 1098 ft 101 kts 189°
2026-04-23 11:03 -42.91417 147.47991 1051 ft 108 kts 154°
2026-04-23 11:03 -42.91395 147.48546 559 ft 88 kts 341°
2026-04-23 11:03 -42.91081 147.47855 576 ft 89 kts 277°
2026-04-23 11:04 -42.91000 147.46995 640 ft 94 kts 277°
2026-04-23 11:04 -42.90922 147.46141 399 ft 83 kts 281°
2026-04-23 11:04 -42.90839 147.45513 193 ft 49 kts 262°
2026-04-23 11:04 -42.90968 147.45235 101 ft 43 kts 201°
2026-04-23 11:05 -42.91270 147.45120 196 ft 47 kts 198°
2026-04-23 11:05 -42.91595 147.45066 330 ft 48 kts 190°
2026-04-23 11:05 -42.91955 147.45008 537 ft 57 kts 189°
2026-04-23 11:05 -42.92392 147.44890 804 ft 72 kts 193°
2026-04-23 11:06 -42.92268 147.45791 552 ft 101 kts 357°
2026-04-23 11:06 -42.91622 147.45592 634 ft 88 kts 342°
2026-04-23 11:06 -42.91042 147.45344 656 ft 87 kts 350°
2026-04-23 11:07 -42.90763 147.45806 640 ft 73 kts 91°
2026-04-23 11:07 -42.91178 147.46207 551 ft 81 kts 171°
2026-04-23 11:07 -42.91767 147.46190 539 ft 87 kts 183°
2026-04-23 11:07 -42.92384 147.46167 549 ft 91 kts 183°
2026-04-23 11:08 -42.93035 147.46136 528 ft 96 kts 182°
2026-04-23 11:08 -42.93720 147.46110 454 ft 101 kts 182°
2026-04-23 11:08 -42.94407 147.46090 431 ft 95 kts 181°
2026-04-23 11:08 -42.95040 147.46065 511 ft 87 kts 180°
2026-04-23 11:09 -42.95631 147.46122 599 ft 84 kts 176°
2026-04-23 11:09 -42.96208 147.46176 668 ft 83 kts 176°
2026-04-23 11:09 -42.96781 147.46265 720 ft 83 kts 173°
2026-04-23 11:09 -42.97325 147.46576 737 ft 86 kts 150°
2026-04-23 11:10 -42.97819 147.47046 785 ft 86 kts 144°
2026-04-23 11:10 -42.98281 147.47580 830 ft 88 kts 134°
2026-04-23 11:10 -42.98489 147.48374 959 ft 103 kts 86°
2026-04-23 11:10 -42.97962 147.49172 923 ft 129 kts 24°
2026-04-23 11:11 -42.97085 147.49307 1033 ft 128 kts
2026-04-23 11:11 -42.96147 147.49258 984 ft 139 kts 357°
2026-04-23 11:11 -42.95197 147.49165 1001 ft 133 kts 357°
2026-04-23 11:11 -42.94289 147.49104 1177 ft 131 kts 357°
2026-04-23 11:12 -42.93388 147.49001 1263 ft 133 kts 356°
2026-04-23 11:12 -42.92456 147.48896 1246 ft 136 kts 355°
2026-04-23 11:12 -42.91517 147.48800 1200 ft 134 kts 355°
2026-04-23 11:12 -42.90571 147.48703 1279 ft 133 kts 355°
2026-04-23 11:13 -42.89658 147.48614 1364 ft 134 kts 355°
2026-04-23 11:13 -42.88738 147.48531 1403 ft 132 kts 355°
2026-04-23 11:13 -42.87822 147.48446 1452 ft 133 kts 355°
2026-04-23 11:13 -42.86910 147.48365 1436 ft 134 kts 355°
2026-04-23 11:14 -42.85916 147.48191 1056 ft 149 kts 352°
2026-04-23 11:14 -42.84906 147.47993 903 ft 144 kts 352°
2026-04-23 11:14 -42.83934 147.47829 869 ft 138 kts 354°
2026-04-23 11:14 -42.82976 147.47716 851 ft 138 kts 356°
2026-04-23 11:15 -42.82025 147.47660 878 ft 131 kts 358°
2026-04-23 11:15 -42.81082 147.47599 1165 ft 137 kts 358°
2026-04-23 11:15 -42.80128 147.47540 1397 ft 138 kts 358°
2026-04-23 11:15 -42.79178 147.47490 1571 ft 135 kts 358°
2026-04-23 11:16 -42.78232 147.47443 1714 ft 136 kts 358°
2026-04-23 11:16 -42.77288 147.47398 1834 ft 135 kts 358°
2026-04-23 11:16 -42.76347 147.47355 1944 ft 136 kts 358°
2026-04-23 11:16 -42.75410 147.47313 2036 ft 134 kts 358°
2026-04-23 11:17 -42.74456 147.47393 2060 ft 145 kts 14°
2026-04-23 11:17 -42.73602 147.47819 2078 ft 115 kts 21°
2026-04-23 11:17 -42.72905 147.48291 2310 ft 125 kts 23°
2026-04-23 11:17 -42.72020 147.48888 2229 ft 152 kts 23°
2026-04-23 11:18 -42.71141 147.49483 2201 ft 132 kts 23°
2026-04-23 11:18 -42.70321 147.50072 2251 ft 132 kts 23°
2026-04-23 11:18 -42.69493 147.50669 2275 ft 133 kts 23°
2026-04-23 11:18 -42.68690 147.51262 2269 ft 133 kts 23°
2026-04-23 11:19 -42.67874 147.51830 2226 ft 130 kts 23°
2026-04-23 11:19 -42.67067 147.52408 2157 ft 132 kts 23°
2026-04-23 11:19 -42.66245 147.52983 2129 ft 132 kts 23°
2026-04-23 11:19 -42.65438 147.53559 2126 ft 131 kts 23°
2026-04-23 11:20 -42.64631 147.54133 2153 ft 131 kts 23°
2026-04-23 11:20 -42.63824 147.54719 2182 ft 134 kts 23°
2026-04-23 11:20 -42.63022 147.55305 2194 ft 131 kts 23°
2026-04-23 11:20 -42.62211 147.55896 2201 ft 132 kts 23°
2026-04-23 11:21 -42.61400 147.56485 2216 ft 133 kts 23°
2026-04-23 11:21 -42.60584 147.57075 2230 ft 134 kts 23°
2026-04-23 11:21 -42.59750 147.57666 2250 ft 136 kts 23°
2026-04-23 11:21 -42.58932 147.58265 2270 ft 134 kts 23°
2026-04-23 11:22 -42.58101 147.58881 2310 ft 136 kts 23°
2026-04-23 11:22 -42.57272 147.59491 2343 ft 137 kts 23°
2026-04-23 11:22 -42.56444 147.60099 2385 ft 134 kts 23°
2026-04-23 11:22 -42.55616 147.60696 2392 ft 135 kts 23°
2026-04-23 11:23 -42.54785 147.61302 2380 ft 135 kts 23°
2026-04-23 11:23 -42.54022 147.61981 2382 ft 131 kts 23°
2026-04-23 11:23 -42.53263 147.62663 2376 ft 130 kts 23°
2026-04-23 11:23 -42.52502 147.63351 2382 ft 132 kts 23°
2026-04-23 11:24 -42.51758 147.64065 2373 ft 131 kts 23°
2026-04-23 11:24 -42.51020 147.64778 2388 ft 130 kts 23°
2026-04-23 11:24 -42.50276 147.65483 2418 ft 132 kts 23°
2026-04-23 11:24 -42.49533 147.66163 2408 ft 131 kts 23°
2026-04-23 11:25 -42.48784 147.66854 2401 ft 130 kts 23°
2026-04-23 11:25 -42.48039 147.67547 2476 ft 129 kts 23°
2026-04-23 11:25 -42.47292 147.68237 2544 ft 129 kts 23°
2026-04-23 11:25 -42.46551 147.68928 2532 ft 128 kts 23°
2026-04-23 11:26 -42.45794 147.69574 2452 ft 128 kts 23°
2026-04-23 11:26 -42.45046 147.70239 2484 ft 128 kts 23°
2026-04-23 11:26 -42.44315 147.70939 2505 ft 128 kts 23°
2026-04-23 11:26 -42.43582 147.71647 2524 ft 130 kts 23°
2026-04-23 11:27 -42.42833 147.72331 2568 ft 130 kts 23°
2026-04-23 11:27 -42.42078 147.73018 2585 ft 131 kts 23°
2026-04-23 11:27 -42.41326 147.73723 2634 ft 131 kts 23°
2026-04-23 11:27 -42.40578 147.74436 2695 ft 132 kts 23°
2026-04-23 11:28 -42.39823 147.75156 2730 ft 134 kts 23°
2026-04-23 11:28 -42.39060 147.75880 2728 ft 134 kts 23°
2026-04-23 11:28 -42.38295 147.76620 2722 ft 136 kts 23°
2026-04-23 11:28 -42.37523 147.77388 2743 ft 140 kts 23°
2026-04-23 11:29 -42.36748 147.78149 2710 ft 138 kts 23°
2026-04-23 11:29 -42.35982 147.78917 2640 ft 137 kts 23°
2026-04-23 11:29 -42.35220 147.79645 2630 ft 132 kts 23°
2026-04-23 11:29 -42.34492 147.80345 2622 ft 130 kts 23°
2026-04-23 11:30 -42.33743 147.81087 2600 ft 139 kts 23°
2026-04-23 11:30 -42.32958 147.81823 2529 ft 138 kts 23°
2026-04-23 11:30 -42.32182 147.82566 2567 ft 136 kts 23°
2026-04-23 11:30 -42.31437 147.83304 2610 ft 133 kts 23°
2026-04-23 11:31 -42.30689 147.84052 2521 ft 137 kts 23°
2026-04-23 11:31 -42.29914 147.84789 2511 ft 137 kts 23°
2026-04-23 11:31 -42.29129 147.85531 2545 ft 136 kts 23°
2026-04-23 11:31 -42.28366 147.86275 2637 ft 135 kts 23°
2026-04-23 11:32 -42.27588 147.87022 2683 ft 139 kts 23°
2026-04-23 11:32 -42.26810 147.87778 2656 ft 137 kts 23°
2026-04-23 11:32 -42.26042 147.88526 2593 ft 137 kts 23°
2026-04-23 11:32 -42.25256 147.89292 2590 ft 141 kts 23°
2026-04-23 11:33 -42.24447 147.90059 2559 ft 140 kts 23°
2026-04-23 11:33 -42.23648 147.90803 2444 ft 136 kts 23°
2026-04-23 11:33 -42.22877 147.91523 2377 ft 133 kts 23°
2026-04-23 11:33 -42.22068 147.92217 2345 ft 138 kts 23°
2026-04-23 11:34 -42.21243 147.92911 2367 ft 139 kts 23°
2026-04-23 11:34 -42.20443 147.93592 2414 ft 135 kts 23°
2026-04-23 11:34 -42.19624 147.94282 2458 ft 140 kts 23°
2026-04-23 11:34 -42.18804 147.94977 2455 ft 138 kts 23°
2026-04-23 11:35 -42.17990 147.95657 2440 ft 138 kts 23°
2026-04-23 11:35 -42.17180 147.96344 2439 ft 141 kts 23°
2026-04-23 11:35 -42.16361 147.97046 2426 ft 138 kts 23°
2026-04-23 11:35 -42.15546 147.97747 2414 ft 139 kts 23°
2026-04-23 11:36 -42.14742 147.98457 2411 ft 138 kts 23°
2026-04-23 11:36 -42.13934 147.99159 2442 ft 138 kts 23°
2026-04-23 11:36 -42.13116 147.99860 2442 ft 140 kts 23°
2026-04-23 11:36 -42.12308 148.00564 2445 ft 137 kts 23°
2026-04-23 11:37 -42.11503 148.01264 2422 ft 139 kts 23°
2026-04-23 11:37 -42.10695 148.01947 2416 ft 136 kts 23°
2026-04-23 11:37 -42.09887 148.02630 2422 ft 140 kts 23°
2026-04-23 11:37 -42.09066 148.03329 2420 ft 139 kts 23°
2026-04-23 11:38 -42.08267 148.04007 2383 ft 133 kts 21°
2026-04-23 11:38 -42.07498 148.04749 1968 ft 141 kts 41°
2026-04-23 11:38 -42.07176 148.06013 1620 ft 149 kts 83°
2026-04-23 11:38 -42.07431 148.07358 1246 ft 149 kts 118°
2026-04-23 11:39 -42.08162 148.08225 836 ft 131 kts 161°
2026-04-23 11:39 -42.08927 148.08085 398 ft 103 kts 213°
2026-04-23 11:39 -42.09453 148.07568 204 ft 84 kts 225°
2026-04-23 11:39 -42.09816 148.07146 88 ft 49 kts 226°
2026-04-23 11:40 -42.09984 148.06998 41 ft 10 kts 225°
2026-04-23 11:40 -42.10003 148.06970 16 ft 0 kts 231°